• în România
  • Lista ţărilor
  • Pe 7 zile
  • Temperatura apei
  • Hartă satelitară
  • Meteo pe hartă
  • Widget-uri
  • user-avatar
    Intrare

    Meteo pe oră la Dneprovka

    Astăzi, 19 Octombrie, Vineri

    Timp Temperatura Precipitaţii Vânt Presiune Umiditate
    00:00 +3°C° 0 mm 4 m/s 743 mmHg 79%
    01:00 +4°C° 0 mm 4 m/s 743 mmHg 78%
    02:00 +3°C° 0 mm 4 m/s 742 mmHg 80%
    03:00 +3°C° 0 mm 4 m/s 742 mmHg 81%
    04:00 +2°C° 0 mm 5 m/s 742 mmHg 83%
    05:00 +3°C° 0 mm 5 m/s 742 mmHg 85%
    06:00 +3°C° 0 mm 5 m/s 741 mmHg 86%
    07:00 +3°C° 0 mm 5 m/s 741 mmHg 88%
    08:00 +5°C° 0 mm 5 m/s 741 mmHg 86%
    09:00 +6°C° 0 mm 5 m/s 741 mmHg 84%
    10:00 +7°C° 0 mm 5 m/s 741 mmHg 81%
    11:00 +8°C° 0 mm 5 m/s 741 mmHg 78%
    12:00 +9°C° 0 mm 5 m/s 741 mmHg 75%
    13:00 +12°C° 0 mm 5 m/s 741 mmHg 72%
    14:00 +12°C° 0 mm 5 m/s 740 mmHg 73%
    15:00 +12°C° 0 mm 5 m/s 740 mmHg 74%
    16:00 +12°C° 0 mm 5 m/s 740 mmHg 75%
    17:00 +10°C° 0 mm 5 m/s 740 mmHg 80%
    18:00 +9°C° 0 mm 5 m/s 740 mmHg 84%
    19:00 +8°C° 0 mm 5 m/s 739 mmHg 88%
    20:00 +8°C° 0 mm 5 m/s 739 mmHg 88%
    21:00 +8°C° 0 mm 5 m/s 739 mmHg 88%
    22:00 +8°C° 0 mm 5 m/s 739 mmHg 89%
    23:00 +8°C° 0.3 mm 5 m/s 739 mmHg 90%

    Mâine, 20 Octombrie, Sâmbătă

    Timp Temperatura Precipitaţii Vânt Presiune Umiditate
    00:00 +8°C° 0.3 mm 5 m/s 739 mmHg 91%
    01:00 +9°C° 0.3 mm 5 m/s 739 mmHg 92%
    02:00 +8°C° 0.4 mm 5 m/s 738 mmHg 93%
    03:00 +8°C° 0.4 mm 5 m/s 738 mmHg 93%
    04:00 +8°C° 0.4 mm 5 m/s 738 mmHg 93%
    05:00 +8°C° 0.5 mm 5 m/s 738 mmHg 93%
    06:00 +8°C° 0.5 mm 5 m/s 737 mmHg 93%
    07:00 +8°C° 0.5 mm 5 m/s 737 mmHg 93%
    08:00 +8°C° 0.9 mm 5 m/s 737 mmHg 92%
    09:00 +8°C° 0.9 mm 5 m/s 737 mmHg 91%
    10:00 +9°C° 0.9 mm 5 m/s 737 mmHg 89%
    11:00 +9°C° 0.7 mm 5 m/s 737 mmHg 89%
    12:00 +9°C° 0.7 mm 5 m/s 737 mmHg 89%
    13:00 +10°C° 0.7 mm 4 m/s 737 mmHg 89%
    14:00 +10°C° 0.4 mm 4 m/s 737 mmHg 87%
    15:00 +10°C° 0.4 mm 4 m/s 737 mmHg 84%
    16:00 +10°C° 0.4 mm 4 m/s 737 mmHg 81%
    17:00 +8°C° 0 mm 4 m/s 738 mmHg 82%
    18:00 +8°C° 0 mm 3 m/s 738 mmHg 83%
    19:00 +5°C° 0 mm 3 m/s 738 mmHg 84%
    20:00 +5°C° 0 mm 3 m/s 739 mmHg 85%
    21:00 +5°C° 0 mm 3 m/s 739 mmHg 86%
    22:00 +4°C° 0 mm 3 m/s 739 mmHg 87%
    23:00 +4°C° 0 mm 3 m/s 739 mmHg 88%

    Poimâine, 21 Octombrie, Duminică

    Timp Temperatura Precipitaţii Vânt Presiune Umiditate
    00:00 +4°C° 0 mm 3 m/s 740 mmHg 89%
    01:00 +4°C° 0 mm 3 m/s 740 mmHg 90%
    02:00 +3°C° 0 mm 3 m/s 740 mmHg 91%
    03:00 +3°C° 0 mm 3 m/s 741 mmHg 92%
    04:00 +2°C° 0 mm 3 m/s 741 mmHg 93%
    05:00 +2°C° 0 mm 3 m/s 741 mmHg 93%
    06:00 +2°C° 0 mm 3 m/s 742 mmHg 94%
    07:00 +2°C° 0 mm 3 m/s 742 mmHg 94%
    08:00 +3°C° 0 mm 3 m/s 742 mmHg 90%
    09:00 +4°C° 0 mm 3 m/s 743 mmHg 86%
    10:00 +4°C° 0 mm 3 m/s 743 mmHg 82%
    11:00 +5°C° 0 mm 4 m/s 744 mmHg 78%
    12:00 +5°C° 0 mm 4 m/s 744 mmHg 73%
    13:00 +6°C° 0 mm 4 m/s 744 mmHg 68%
    14:00 +6°C° 0 mm 4 m/s 745 mmHg 68%
    15:00 +5°C° 0 mm 3 m/s 745 mmHg 69%
    16:00 +5°C° 0 mm 3 m/s 745 mmHg 69%
    17:00 +4°C° 0 mm 3 m/s 745 mmHg 73%
    18:00 +4°C° 0 mm 2 m/s 746 mmHg 78%
    19:00 +3°C° 0 mm 2 m/s 746 mmHg 82%
    20:00 +3°C° 0 mm 2 m/s 746 mmHg 84%
    21:00 +3°C° 0 mm 1 m/s 746 mmHg 86%
    22:00 +3°C° 0 mm 1 m/s 747 mmHg 87%
    23:00 +2°C° 0 mm 1 m/s 747 mmHg 88%

    22 Octombrie, Luni

    Timp Temperatura Precipitaţii Vânt Presiune Umiditate
    00:00 +2°C° 0 mm 1 m/s 747 mmHg 88%
    01:00 +2°C° 0 mm 1 m/s 747 mmHg 89%
    02:00 +2°C° 0 mm 1 m/s 747 mmHg 89%
    03:00 +2°C° 0 mm 1 m/s 748 mmHg 89%
    04:00 +1°C° 0 mm 1 m/s 748 mmHg 89%
    05:00 +1°C° 0 mm 1 m/s 748 mmHg 90%
    06:00 +1°C° 0 mm 1 m/s 748 mmHg 90%
    07:00 +1°C° 0 mm 1 m/s 748 mmHg 90%
    08:00 +2°C° 0 mm 1 m/s 748 mmHg 85%
    09:00 +2°C° 0 mm 1 m/s 748 mmHg 80%
    10:00 +2°C° 0 mm 2 m/s 749 mmHg 75%
    11:00 +2°C° 0 mm 2 m/s 749 mmHg 71%
    12:00 +3°C° 0 mm 2 m/s 749 mmHg 67%
    13:00 +4°C° 0 mm 2 m/s 749 mmHg 63%
    14:00 +3°C° 0 mm 2 m/s 749 mmHg 63%
    15:00 +3°C° 0 mm 2 m/s 748 mmHg 63%
    16:00 +4°C° 0 mm 1 m/s 748 mmHg 63%
    17:00 +3°C° 0 mm 1 m/s 748 mmHg 67%
    18:00 +2°C° 0 mm 1 m/s 748 mmHg 71%
    19:00 +1°C° 0 mm 1 m/s 748 mmHg 75%
    20:00 +1°C° 0 mm 1 m/s 748 mmHg 75%
    21:00 +1°C° 0 mm 1 m/s 748 mmHg 76%
    22:00 +1°C° 0 mm 1 m/s 748 mmHg 77%
    23:00 +1°C° 0 mm 1 m/s 748 mmHg 77%

    23 Octombrie, Marţi

    Timp Temperatura Precipitaţii Vânt Presiune Umiditate
    00:00 +1°C° 0 mm 1 m/s 748 mmHg 77%
    01:00 +1°C° 0 mm 1 m/s 748 mmHg 78%
    02:00 +1°C° 0 mm 1 m/s 748 mmHg 78%
    03:00 +1°C° 0 mm 1 m/s 748 mmHg 78%
    04:00 0°C° 0 mm 1 m/s 748 mmHg 79%
    05:00 0°C° 0 mm 1 m/s 748 mmHg 79%
    06:00 0°C° 0 mm 1 m/s 747 mmHg 79%
    07:00 0°C° 0 mm 1 m/s 747 mmHg 80%
    08:00 +1°C° 0 mm 2 m/s 747 mmHg 75%
    09:00 +2°C° 0 mm 2 m/s 747 mmHg 70%
    10:00 +3°C° 0 mm 2 m/s 747 mmHg 65%
    11:00 +4°C° 0 mm 2 m/s 747 mmHg 61%
    12:00 +5°C° 0 mm 2 m/s 747 mmHg 57%
    13:00 +5°C° 0 mm 3 m/s 747 mmHg 54%
    14:00 +6°C° 0 mm 2 m/s 746 mmHg 57%
    15:00 +5°C° 0 mm 2 m/s 746 mmHg 59%
    16:00 +5°C° 0 mm 2 m/s 746 mmHg 62%
    17:00 +4°C° 0 mm 2 m/s 745 mmHg 65%
    18:00 +2°C° 0 mm 3 m/s 745 mmHg 69%
    19:00 +1°C° 0 mm 3 m/s 745 mmHg 72%
    20:00 +1°C° 0 mm 3 m/s 745 mmHg 71%
    21:00 +1°C° 0 mm 3 m/s 744 mmHg 71%
    22:00 +1°C° 0 mm 3 m/s 744 mmHg 71%
    23:00 +1°C° 0 mm 3 m/s 743 mmHg 71%

    24 Octombrie, Miercuri

    Timp Temperatura Precipitaţii Vânt Presiune Umiditate
    00:00 +1°C° 0 mm 4 m/s 743 mmHg 72%
    01:00 +1°C° 0 mm 4 m/s 743 mmHg 72%
    02:00 +1°C° 0 mm 4 m/s 742 mmHg 74%
    03:00 +3°C° 0 mm 4 m/s 742 mmHg 76%
    04:00 +2°C° 0 mm 5 m/s 742 mmHg 78%
    05:00 +3°C° 0 mm 5 m/s 741 mmHg 78%
    06:00 +3°C° 0 mm 5 m/s 741 mmHg 78%
    07:00 +4°C° 0 mm 6 m/s 740 mmHg 78%
    08:00 +5°C° 0 mm 6 m/s 740 mmHg 76%
    09:00 +6°C° 0 mm 7 m/s 740 mmHg 74%
    10:00 +7°C° 0 mm 8 m/s 740 mmHg 72%
    11:00 +9°C° 0 mm 8 m/s 739 mmHg 69%
    12:00 +10°C° 0 mm 8 m/s 739 mmHg 66%
    13:00 +11°C° 0 mm 9 m/s 739 mmHg 63%
    14:00 +10°C° 0 mm 8 m/s 739 mmHg 66%
    15:00 +10°C° 0 mm 7 m/s 739 mmHg 68%
    16:00 +9°C° 0 mm 7 m/s 739 mmHg 71%
    17:00 +9°C° 0 mm 7 m/s 739 mmHg 70%
    18:00 +9°C° 0 mm 7 m/s 739 mmHg 70%
    19:00 +8°C° 0 mm 7 m/s 740 mmHg 70%
    20:00 +8°C° 0 mm 6 m/s 740 mmHg 71%
    21:00 +8°C° 0 mm 6 m/s 740 mmHg 71%
    22:00 +8°C° 0 mm 6 m/s 740 mmHg 71%
    23:00 +8°C° 0 mm 6 m/s 740 mmHg 69%
    Arată mai mult